Zurück zum Katalog

STARLINK-30904

AktivKommunikationVLEO
NORAD 58364·PAYLOAD·🇺🇸 United States

Gestartet Nov 18, 2023 von Cape Canaveral Space Force Station

Loading…

Nächste Überflüge (nächste 24 Stunden)

TLE

AktuellSource: CelesTrak SupGP

Epoche: Sep 14, 2026, 22:36 UTC

1 58364C 23177P   26257.94215278  .00021816  00000+0  12347-2 0  2579
2 58364  43.0008  31.2514 0013350 290.1227 137.9300 15.12192133    16

Verfolge STARLINK-30904 in Echtzeit mit AllMySat

Download on the App Store